Location: Newark
(39.6867°N, 100.6772°W)
Time: 07:44:00
(UTC+00:00)

Explorer 11/Cluster Stage 4 - Pass Details

Date: 27 October 2019
Orbit: 467 x 1259 km, 28.8° (Epoch: 20 November)

Event Time Altitude Azimuth Distance (km) Brightness Sun altitude
Rises 16:00:32 0° 249° (WSW) 2,619 9.1 27.5°
Reaches altitude 10° 16:04:11 10° 214° (SW) 1,643 8.5 27.9°
Maximum altitude 16:05:25 11° 194° (SSW) 1,541 8.7 28.1°
Drops below altitude 10° 16:06:38 10° 174° (S) 1,611 9.2 28.2°
Sets 16:10:06 0° 139° (SE) 2,484 10.4 28.6°
